Location: Austin
(30.3000°N, 97.7500°W)
Time: 02:26:26
(UTC-05:00)

Cosmos 2180 Rocket - Pass Details

Date: 01 October 2024
Orbit: 952 x 1005 km, 82.9° (Epoch: 06 October)

Event Time Altitude Azimuth Distance (km) Brightness Sun altitude
Rises 20:22:57 0° 174° (S) 3,710 7.4 -15.4°
Reaches altitude 10° 20:25:31 10° 171° (S) 2,760 6.7 -15.9°
Maximum altitude 20:31:44 61° 92° (E) 1,115 4.5 -17.3°
Drops below altitude 10° 20:37:56 10° 14° (NNE) 2,744 6.8 -18.6°
Sets 20:40:27 0° 11° (N) 3,687 7.5 -19.1°
